When you browse on this site, cookies collect data to enhance your experience and personalize the content and advertising you see.
Visit our Privacy Policy to learn more. By continuing to use the site, you agree to this use of cookies and data.

Hourly Weather Malaya Sopka

Today, 6 August, Thursday

Time Temperature Precipitation Wind Pressure Humidity
00:00 +25°C° 0 mm 4 mps 756 mmHg 64%
01:00 +25°C° 0 mm 4 mps 757 mmHg 67%
02:00 +23°C° 0 mm 4 mps 757 mmHg 70%
03:00 +24°C° 0 mm 2 mps 757 mmHg 72%
04:00 +24°C° 0 mm 3 mps 757 mmHg 73%
05:00 +24°C° 0 mm 3 mps 758 mmHg 74%
06:00 +24°C° 0 mm 3 mps 758 mmHg 75%
07:00 +26°C° 0 mm 3 mps 758 mmHg 67%
08:00 +28°C° 0 mm 4 mps 758 mmHg 60%
09:00 +30°C° 0 mm 4 mps 758 mmHg 52%
10:00 +32°C° 0 mm 4 mps 758 mmHg 47%
11:00 +34°C° 0 mm 4 mps 758 mmHg 42%
12:00 +35°C° 0 mm 4 mps 758 mmHg 37%
13:00 +36°C° 0 mm 4 mps 758 mmHg 35%
14:00 +37°C° 0 mm 5 mps 758 mmHg 32%
15:00 +39°C° 0 mm 5 mps 758 mmHg 30%
16:00 +37°C° 0 mm 4 mps 758 mmHg 32%
17:00 +36°C° 0 mm 4 mps 758 mmHg 34%
18:00 +36°C° 0 mm 4 mps 757 mmHg 35%
19:00 +34°C° 0 mm 4 mps 758 mmHg 39%
20:00 +33°C° 0 mm 4 mps 758 mmHg 44%
21:00 +30°C° 0 mm 4 mps 758 mmHg 48%
22:00 +29°C° 0 mm 4 mps 758 mmHg 51%
23:00 +28°C° 0 mm 4 mps 758 mmHg 55%

Tomorrow, 7 August, Friday

Time Temperature Precipitation Wind Pressure Humidity
00:00 +28°C° 0 mm 4 mps 758 mmHg 58%
01:00 +27°C° 0 mm 4 mps 758 mmHg 62%
02:00 +27°C° 0 mm 4 mps 758 mmHg 65%
03:00 +26°C° 0 mm 4 mps 758 mmHg 68%
04:00 +26°C° 0 mm 4 mps 758 mmHg 69%
05:00 +26°C° 0 mm 4 mps 758 mmHg 71%
06:00 +26°C° 0 mm 4 mps 758 mmHg 73%
07:00 +28°C° 0 mm 4 mps 758 mmHg 66%
08:00 +29°C° 0 mm 4 mps 759 mmHg 60%
09:00 +32°C° 0 mm 4 mps 759 mmHg 53%
10:00 +34°C° 0 mm 4 mps 759 mmHg 48%
11:00 +35°C° 0 mm 4 mps 759 mmHg 42%
12:00 +36°C° 0 mm 4 mps 758 mmHg 36%
13:00 +37°C° 0 mm 4 mps 758 mmHg 34%
14:00 +37°C° 0 mm 4 mps 758 mmHg 32%
15:00 +38°C° 0 mm 4 mps 758 mmHg 29%
16:00 +37°C° 0 mm 5 mps 757 mmHg 31%
17:00 +36°C° 0 mm 5 mps 757 mmHg 33%
18:00 +35°C° 0 mm 5 mps 757 mmHg 35%
19:00 +34°C° 0 mm 5 mps 757 mmHg 39%
20:00 +32°C° 0 mm 4 mps 757 mmHg 43%
21:00 +29°C° 0 mm 4 mps 757 mmHg 47%
22:00 +28°C° 0 mm 4 mps 757 mmHg 47%
23:00 +28°C° 0 mm 4 mps 757 mmHg 47%

Day after tomorrow, 8 August, Saturday

Time Temperature Precipitation Wind Pressure Humidity
00:00 +27°C° 0 mm 4 mps 757 mmHg 48%
01:00 +26°C° 0 mm 4 mps 757 mmHg 50%
02:00 +25°C° 0 mm 4 mps 757 mmHg 53%
03:00 +23°C° 0 mm 4 mps 757 mmHg 55%
04:00 +23°C° 0 mm 4 mps 757 mmHg 59%
05:00 +23°C° 0 mm 4 mps 757 mmHg 63%
06:00 +22°C° 0 mm 4 mps 757 mmHg 67%
07:00 +25°C° 0 mm 5 mps 757 mmHg 64%
08:00 +27°C° 0 mm 5 mps 757 mmHg 60%
09:00 +28°C° 0 mm 6 mps 757 mmHg 57%
10:00 +29°C° 0 mm 6 mps 757 mmHg 53%
11:00 +30°C° 0 mm 6 mps 757 mmHg 49%
12:00 +33°C° 0 mm 6 mps 756 mmHg 44%
13:00 +33°C° 0 mm 6 mps 756 mmHg 42%
14:00 +33°C° 0 mm 6 mps 756 mmHg 39%
15:00 +33°C° 0 mm 6 mps 755 mmHg 36%
16:00 +33°C° 0 mm 6 mps 755 mmHg 37%
17:00 +32°C° 0 mm 6 mps 755 mmHg 37%
18:00 +32°C° 0 mm 6 mps 755 mmHg 38%
19:00 +29°C° 0 mm 6 mps 755 mmHg 40%
20:00 +28°C° 0 mm 6 mps 756 mmHg 41%
21:00 +26°C° 0 mm 5 mps 756 mmHg 43%
22:00 +24°C° 0 mm 6 mps 756 mmHg 45%
23:00 +23°C° 0 mm 6 mps 756 mmHg 46%

9 August, Sunday

Time Temperature Precipitation Wind Pressure Humidity
00:00 +22°C° 0 mm 6 mps 756 mmHg 47%
01:00 +22°C° 0 mm 5 mps 756 mmHg 50%
02:00 +21°C° 0 mm 5 mps 756 mmHg 53%
03:00 +20°C° 0 mm 5 mps 756 mmHg 55%
04:00 +20°C° 0 mm 5 mps 756 mmHg 58%
05:00 +19°C° 0 mm 5 mps 756 mmHg 60%
06:00 +19°C° 0 mm 5 mps 756 mmHg 63%
07:00 +21°C° 0 mm 5 mps 756 mmHg 57%
08:00 +23°C° 0 mm 5 mps 756 mmHg 51%
09:00 +24°C° 0 mm 6 mps 756 mmHg 46%
10:00 +27°C° 0 mm 6 mps 756 mmHg 41%
11:00 +28°C° 0 mm 6 mps 756 mmHg 36%
12:00 +29°C° 0 mm 6 mps 756 mmHg 31%
13:00 +29°C° 0 mm 6 mps 756 mmHg 29%
14:00 +30°C° 0 mm 6 mps 755 mmHg 27%
15:00 +32°C° 0 mm 5 mps 755 mmHg 25%
16:00 +30°C° 0 mm 5 mps 755 mmHg 26%
17:00 +30°C° 0 mm 5 mps 755 mmHg 27%
18:00 +29°C° 0 mm 5 mps 755 mmHg 27%
19:00 +28°C° 0 mm 4 mps 755 mmHg 31%
20:00 +26°C° 0 mm 3 mps 755 mmHg 35%
21:00 +24°C° 0 mm 3 mps 755 mmHg 39%
22:00 +22°C° 0 mm 3 mps 755 mmHg 42%
23:00 +22°C° 0 mm 3 mps 755 mmHg 45%

10 August, Monday

Time Temperature Precipitation Wind Pressure Humidity
00:00 +21°C° 0 mm 4 mps 756 mmHg 48%
01:00 +21°C° 0 mm 4 mps 755 mmHg 51%
02:00 +20°C° 0 mm 4 mps 755 mmHg 53%
03:00 +20°C° 0 mm 4 mps 755 mmHg 56%
04:00 +20°C° 0 mm 3 mps 755 mmHg 57%
05:00 +19°C° 0 mm 3 mps 755 mmHg 59%
06:00 +19°C° 0 mm 3 mps 756 mmHg 60%
07:00 +22°C° 0 mm 3 mps 756 mmHg 54%
08:00 +25°C° 0 mm 4 mps 756 mmHg 48%
09:00 +27°C° 0 mm 4 mps 756 mmHg 41%
10:00 +29°C° 0 mm 4 mps 756 mmHg 38%
11:00 +30°C° 0 mm 4 mps 755 mmHg 34%
12:00 +32°C° 0 mm 4 mps 755 mmHg 31%
13:00 +33°C° 0 mm 4 mps 755 mmHg 29%
14:00 +33°C° 0 mm 4 mps 755 mmHg 28%
15:00 +34°C° 0 mm 4 mps 754 mmHg 27%
16:00 +33°C° 0 mm 4 mps 754 mmHg 28%
17:00 +33°C° 0 mm 4 mps 754 mmHg 30%
18:00 +31°C° 0 mm 3 mps 754 mmHg 31%
19:00 +30°C° 0 mm 3 mps 754 mmHg 36%
20:00 +28°C° 0 mm 3 mps 754 mmHg 41%
21:00 +26°C° 0 mm 3 mps 755 mmHg 47%
22:00 +25°C° 0 mm 3 mps 755 mmHg 51%
23:00 +25°C° 0 mm 3 mps 755 mmHg 55%

11 August, Tuesday

Time Temperature Precipitation Wind Pressure Humidity
00:00 +24°C° 0 mm 3 mps 755 mmHg 59%
01:00 +22°C° 0 mm 3 mps 755 mmHg 61%
02:00 +22°C° 0 mm 3 mps 755 mmHg 64%
03:00 +23°C° 0 mm 2 mps 755 mmHg 66%
04:00 +21°C° 0 mm 2 mps 755 mmHg 66%
05:00 +21°C° 0 mm 2 mps 755 mmHg 66%
06:00 +21°C° 0 mm 2 mps 755 mmHg 65%
07:00 +24°C° 0 mm 2 mps 755 mmHg 58%
08:00 +26°C° 0 mm 3 mps 755 mmHg 50%
09:00 +28°C° 0 mm 3 mps 755 mmHg 43%
10:00 +29°C° 0 mm 3 mps 755 mmHg 39%
11:00 +30°C° 0 mm 3 mps 755 mmHg 36%
12:00 +31°C° 0 mm 3 mps 755 mmHg 33%
13:00 +31°C° 0 mm 3 mps 755 mmHg 31%
14:00 +33°C° 0 mm 3 mps 755 mmHg 29%
15:00 +33°C° 0 mm 3 mps 754 mmHg 28%
16:00 +32°C° 0 mm 2 mps 754 mmHg 28%
17:00 +32°C° 0 mm 2 mps 754 mmHg 28%
18:00 +32°C° 0 mm 2 mps 754 mmHg 28%
19:00 +30°C° 0 mm 2 mps 754 mmHg 31%
20:00 +28°C° 0 mm 2 mps 754 mmHg 34%
21:00 +26°C° 0 mm 1 mps 754 mmHg 37%
22:00 +25°C° 0 mm 1 mps 754 mmHg 39%
23:00 +24°C° 0 mm 1 mps 754 mmHg 40%
Show more